Home > Weather > Unna > Past weeks

Flag for Germany Past Weather in Unna, North Rhine-Westphalia, Germany — Yesterday and Last 2 Weeks

Now
79 °F

Sunny.


Feels Like: 80 °F
Forecast: 65 / 88 °F
Wind: 7 mph from Southeast

Location: Dortmund / Wickede

Current Time: Aug 27, 2016 at 8:51:21 PM

Latest Report: Aug 27, 2016 at 8:20 PM


Visibility: 10 mi

Pressure: 29.98 "Hg

Humidity: 51%

Dew Point: 59 °F

Location of UnnaLocation

Past Weather in Unna — Graph

°F

Unna Temperature Yesterday

Maximum temperature yesterday: 91 °F (at 3:20 PM)
Minimum temperature yesterday: 70 °F (at 5:20 AM)
Average temperature yesterday: 82 °F

High & Low Weather Summary for the Past Weeks

 TemperatureHumidityPressure
High91 °F (Aug 25, 3:50 PM)88% (Aug 13, 5:20 AM)30.36 "Hg (Aug 13, 5:20 AM)
Low48 °F (Aug 16, 6:20 AM)16% (Aug 25, 3:50 PM)29.80 "Hg (Aug 18, 2:50 PM)
Average69 °F55%30.07 "Hg
* Reported Aug 12 7:20 PM — Aug 27 7:20 PM, Unna, Weather by CustomWeather, © 2016

Note: Actual official high and low records may vary slightly from our data, if they occured in-between our weather recording intervals... More about our weather records

Advertising

Unna Weather History for the Previous 24 Hours

Scroll right to see more
 ConditionsComfort  
Time TempWeatherWind HumidityBarometerVisibility
7:20 PM
Sat, Aug 27
81 °FPassing clouds.7 mph58%30.01 "HgN/A
6:50 PM82 °FPassing clouds.7 mph51%30.01 "HgN/A
6:20 PM82 °FPassing clouds.7 mph51%30.01 "HgN/A
5:50 PM82 °FPassing clouds.5 mph51%30.01 "HgN/A
5:20 PM82 °FPassing clouds.5 mph51%30.01 "HgN/A
4:50 PM84 °FPassing clouds.5 mph48%30.01 "HgN/A
4:20 PM84 °FPassing clouds.7 mph45%30.04 "HgN/A
3:50 PM86 °FPassing clouds.6 mph43%30.04 "HgN/A
3:20 PM84 °FPassing clouds.6 mph45%30.04 "HgN/A
2:50 PM84 °FPassing clouds.6 mph45%30.07 "HgN/A
2:20 PM82 °FPassing clouds.6 mph48%30.07 "HgN/A
1:50 PM82 °FPassing clouds.6 mph48%30.07 "HgN/A
1:20 PM81 °FPassing clouds.6 mph48%30.09 "HgN/A
12:50 PM79 °FPassing clouds.7 mph51%30.09 "HgN/A
12:20 PM79 °FPassing clouds.6 mph54%30.09 "HgN/A
11:50 AM75 °FPassing clouds.6 mph57%30.09 "HgN/A
11:20 AM73 °FPassing clouds.6 mph57%30.09 "HgN/A
10:50 AM72 °FPassing clouds.7 mph61%30.09 "HgN/A
10:20 AM70 °FPassing clouds.8 mph64%30.09 "HgN/A
9:50 AM70 °FPassing clouds.6 mph64%30.12 "HgN/A
9:20 AM68 °FPassing clouds.7 mph64%30.12 "HgN/A
8:50 AM66 °FPassing clouds.6 mph68%30.12 "HgN/A
8:20 AM64 °FPassing clouds.6 mph73%30.12 "HgN/A
7:50 AM63 °FSunny.5 mph77%30.12 "Hg10 mi
7:20 AM63 °FClear.5 mph77%30.09 "Hg10 mi
6:50 AM61 °FClear.5 mph83%30.09 "Hg10 mi
6:20 AM63 °FClear.3 mph77%30.09 "Hg10 mi
5:50 AM63 °FClear.3 mph77%30.09 "Hg10 mi
5:20 AM64 °FClear.3 mph73%30.09 "Hg10 mi
9:50 PM
Fri, Aug 26
75 °FClear.7 mph65%30.07 "Hg10 mi
9:20 PM77 °FSunny.6 mph61%30.07 "Hg10 mi
8:50 PM77 °FSunny.6 mph61%30.07 "Hg10 mi
8:20 PM79 °FSunny.5 mph54%30.04 "Hg10 mi
Weather by CustomWeather, © 2016

See weather overviewHow to use our weather pages